Location: Armidale
(30.5016°S, 151.6662°E)
Time: 08:04:22
(UTC+10:00)

N. Korean satellite - Pass Details

Date: 19 May 2021
Orbit: 450 x 500 km, 97.2° (Epoch: 18 June)

Event Time Altitude Azimuth Distance (km) Brightness Sun altitude
Rises 17:24:45 0° 176° (S) 2,625 10.0 -4.8°
Reaches altitude 10° 17:26:54 10° 181° (S) 1,732 9.2 -5.2°
Maximum altitude 17:30:30 48° 256° (WSW) 665 7.7 -6.0°
Drops below altitude 10° 17:34:03 10° 331° (NNW) 1,698 10.1 -6.7°
Sets 17:36:09 0° 336° (NNW) 2,567 10.9 -7.1°
